Regional Weather Roundup
Issued by NWS Upton, NY

Current Version | Previous Version | Text Only | Print | Product List | Glossary On
Versions: 1 2 3 4 5 6 7 8 9 10 11 12 13 14 15 16 17 18 19 20 21 22 23 24 25 26 27
000
ASUS41 KOKX 192009
RWROKX

REGIONAL WEATHER ROUNDUP
NATIONAL WEATHER SERVICE NEW YORK NY
400 PM EDT THU OCT 19 2017

NOTE: "FAIR" INDICATES FEW OR NO CLOUDS BELOW 12,000 FEET WITH NO
SIGNIFICANT WEATHER AND/OR OBSTRUCTIONS TO VISIBILITY.

NYZ071-072-176-178-NJZ106-104-192100-
NEW YORK CITY METRO AREA

CITY           SKY/WX    TMP DP  RH WIND       PRES   REMARKS
Central Park   FAIR      70  42  36 VRB3      30.13F
Bronx Bot Gard   N/A     72  41  33 W5        30.12F
LaGuardia APRT FAIR      72  39  30 S14G21    30.10F
Kennedy INTL   FAIR      67  55  65 S15       30.14F
Breezy Point     N/A     68 N/A N/A SW6         N/A
Newark/Liberty FAIR      73  39  29 SW13      30.11F
Teterboro      FAIR      74  38  27 SW10      30.09F
$$

NYZ177-179-078>081-192100-
LONG ISLAND NEW YORK

CITY           SKY/WX    TMP DP  RH WIND       PRES   REMARKS
Jones Beach      N/A     64 N/A N/A S9          N/A
Matinecock PT    N/A     68 N/A N/A SW13        N/A
Farmingdale    FAIR      66  51  58 SW15      30.13F
MacArthur/ISP  FAIR      66  50  56 SW15      30.12F
Shirley        FAIR      67  50  54 S14G20    30.14F
Mt Sinai Harb    N/A    N/A N/A N/A S10G16      N/A
Westhampton    FAIR      65  49  56 SW14G23   30.15F
East Hampton   FAIR      64  53  68 SW17G23   30.13F
Montauk          N/A     64  56  75 SW12G18   30.14F
$$

NYZ052-065-067-192100-
HUDSON VALLEY

CITY           SKY/WX    TMP DP  RH WIND       PRES   REMARKS
White Plains   FAIR      71  38  29 VRB7      30.10F
Larchmont Harb   N/A     68 N/A N/A S14         N/A
Croton On Huds   N/A     72 N/A N/A S9          N/A
Newburgh       SUNNY     72  45  37 SW16      30.09S
Montgomery     FAIR      70  45  40 SW14G24   30.06F
Poughkeepsie   FAIR      73  38  27 SW10      30.05F
Albany         PTSUNNY   72  45  37 S13       29.98F
$$

NJZ001-105-106-008-010-013-015-019>022-104-192100-
NEW JERSEY

CITY           SKY/WX    TMP DP  RH WIND       PRES   REMARKS
Newark/Liberty FAIR      73  39  29 SW13      30.11F
Teterboro      FAIR      74  38  27 SW10      30.09F
Caldwell       FAIR      71  42  35 VRB7      30.10F
Somerville     FAIR      72  44  36 VRB5      30.09F
Linden         FAIR      73  40  30 CALM      30.11F
Perth Amboy      N/A     68 N/A N/A SW14        N/A
Sussex         FAIR      71  44  37 SW8       30.08F
Andover          N/A     70  44  39 S6        30.10F
Trenton        FAIR      71  46  40 SW10      30.12F
Millville      FAIR      71  51  49 SW6       30.16F
Atlantic City  FAIR      70  50  49 SW10      30.15F
Wrightstown    FAIR      71  43  37 W10       30.11F
Toms River       N/A     71  44  37 SW12      30.14F
Belmar         FAIR      71  45  39 SW7       30.14F
$$

PAZ047>061-062-071-192100-
EASTERN PENNSYLVANIA

CITY           SKY/WX    TMP DP  RH WIND       PRES   REMARKS
Philadelphia   FAIR      71  44  37 SW14      30.14F
Allentown      FAIR      72  46  39 SW10      30.11F
Scranton       FAIR      72  42  34 W15G21    30.09F
$$

CTZ002-004>006-009-010-012-RIZ004-006-007-MAZ004-011-015-192100-
SOUTHERN NEW ENGLAND
 IN CT

CITY           SKY/WX    TMP DP  RH WIND       PRES   REMARKS
Bradley INTL   FAIR      73  41  31 S12       30.05F
Hartford       FAIR      71  44  37 S13G18    30.07F
Danbury        FAIR      71  41  33 SW10      30.10F
Wtrbury/Oxford FAIR      69  43  38 S7        30.10F
Norwalk Harbor   N/A     66 N/A N/A S15         N/A
Bridgeport     FAIR      71  45  39 SW15      30.10F
Meriden        FAIR      69  44  40 S13       30.09F
New Haven      FAIR      69  47  45 SW10      30.10F
Chester        FAIR      68  45  42 S8G18     30.11F
Groton         FAIR      66  54  65 SW17      30.11F
Wilimantic     FAIR      71  40  32 SW14      30.08F

 IN RI

CITY           SKY/WX    TMP DP  RH WIND       PRES   REMARKS
Providence     FAIR      70  48  45 SW15G24   30.10F
Block Island   FAIR      65  56  72 SW20      30.14F
Westerly       FAIR      68  52  56 SW13G21   30.13F
 IN MA

CITY           SKY/WX    TMP DP  RH WIND       PRES   REMARKS
Boston         FAIR      73  43  33 SW17      30.03F
Worcester      FAIR      68  37  32 S17       30.06F
Westfield      FAIR      74  35  24 SW13      30.03F
Provincetown   FAIR      65  54  67 SW18G24   30.09F
Nantucket      FAIR      64  59  83 SW14      30.15F
$$

ANZ330-335-338-340-345-350-353-355-192100-
COASTAL MARINE OBSERVATIONS


STATION/POSITION TIME  SKY/WX   TEMP    WIND        PRES    VSBY  WAVE
                                AIR SEA DIR/SP/G                  HT/PER
                 (UTC)          (F)     (DEG/KT/KT) (MB)    (MI)  (FT/S)
NY HARB ENTRANCE 1850            64 65  190/ 16/ 17 1020.1          3/ 9
20 S FIRE ISLAND 1950            63 64  210/ 16/ 19 1020.7          4/ 4
GREAT SOUTH BAY  1930            63 62  220/ 14/ 17   N/A
15 E BARNEGAT LI 1930               66                N/A           4/ 9
HUDSON CANYON    1950            64 65  230/ 14/ 16 1021.5          3/10
KINGS POINT      1942            69 66  250/ 12/ 17 1020.3
EXECUTION ROCKS  1945            69     190/ 14/ 16   N/A
WESTERN LI SOUND 1849            69     220/ 14/ 19   N/A           1/ 2
CENTRAL LI SOUND NOT AVBL
EASTERN LI SOUND NOT AVBL
ROBBINS REEF     1942            70     210/ 14/ 16 1020.4
$$


>>>>>>>>>>>>>>>>>>>>>>>>>>>> KEY <<<<<<<<<<<<<<<<<<<<<<<<<<<
>                                                          <
>     SKY/WX - Sky Condition/Present Weather               <
>     TMP    - Temperature in Fahrenheit                   <
>     DP     - Dew Point in Fahrenheit                     <
>     RH     - Relative Humidity in Percent                <
>     WIND   - Direction (from) and Speed in MPH           <
>     PRES   - Mean Sea Level Pressure (inches of Hg)      <
>     WCI    - Wind Chill Index                            <
>     VSB    - VISIBILITY IN MILES                         <
>     HX     - HEAT INDEX                                  <
>     TC     - TEMPERATURE IN CELSIUS                      <
>     VRB    - VARIABLE WIND DIRECTION                     <
>                                                          <
>>>>>>>>>>>>>>>>>>>>>>>>>>>> KEY <<<<<<<<<<<<<<<<<<<<<<<<<<<




USA.gov is the U.S. government's official web portal to all federal, state and local government web resources and services.